TimeICT,TemperatureF,Dew PointF,Humidity,Sea Level PressureIn,VisibilityMPH,Wind Direction,Wind SpeedMPH,Gust SpeedMPH,PrecipitationIn,Events,Conditions,WindDirDegrees,DateUTC
12:00 AM,77.0,71.6,83,29.65,5.6,West,6.9,-,N/A,,Mostly Cloudy,260,2013-07-31 17:00:00
4:00 AM,77.0,75.2,94,29.59,5.0,SE,2.3,-,N/A,,Overcast,130,2013-07-31 21:00:00
5:00 AM,77.0,75.2,94,29.62,5.6,Calm,Calm,-,N/A,,Overcast,0,2013-07-31 22:00:00
6:00 AM,77.0,75.2,94,29.65,5.6,Calm,Calm,-,N/A,,Overcast,0,2013-07-31 23:00:00
6:30 AM,77.0,75.2,94,29.65,5.0,SE,2.3,-,N/A,,Overcast,140,2013-07-31 23:30:00
7:00 AM,76,75,97,29.67,5,SSE,3.5,,,,Mist,150,2013-08-01 00:00:00
7:00 AM,77.0,75.2,94,29.65,5.0,SSE,3.5,-,N/A,,Overcast,150,2013-08-01 00:00:00
8:00 AM,78.8,75.2,89,29.68,5.0,SW,3.5,-,N/A,,Overcast,230,2013-08-01 01:00:00
9:00 AM,80.6,75.2,84,29.68,5.0,SW,5.8,-,N/A,,Overcast,220,2013-08-01 02:00:00
10:00 AM,82.4,75.2,79,29.68,5.6,WSW,6.9,-,N/A,,Overcast,240,2013-08-01 03:00:00
11:00 AM,84.2,75.2,74,29.65,5.6,SW,10.4,-,N/A,,Mostly Cloudy,230,2013-08-01 04:00:00
12:00 PM,86.0,77.0,74,29.62,5.6,WSW,6.9,-,N/A,,Mostly Cloudy,250,2013-08-01 05:00:00
1:00 PM,87,75,60,29.62,6,WSW,10.4,,,,Mist,250,2013-08-01 06:00:00
1:00 PM,87.8,75.2,66,29.62,5.6,WSW,10.4,-,N/A,,Mostly Cloudy,250,2013-08-01 06:00:00
2:00 PM,87.8,75.2,66,29.56,5.6,West,5.8,-,N/A,,Mostly Cloudy,270,2013-08-01 07:00:00
3:00 PM,87.8,75.2,66,29.56,5.6,WSW,6.9,-,N/A,,Mostly Cloudy,250,2013-08-01 08:00:00
4:00 PM,87.8,75.2,66,29.53,5.6,WSW,8.1,-,N/A,,Mostly Cloudy,240,2013-08-01 09:00:00
5:00 PM,87.8,77.0,70,29.53,5.0,SSW,5.8,-,N/A,,Mostly Cloudy,200,2013-08-01 10:00:00
5:30 PM,86.0,75.2,70,29.53,5.0,SW,6.9,-,N/A,,Mostly Cloudy,220,2013-08-01 10:30:00
6:00 PM,84.2,78.8,84,29.56,4.3,East,2.3,-,N/A,,Mostly Cloudy,100,2013-08-01 11:00:00
7:00 PM,82,79,87,29.59,4,Calm,Calm,,,,Mist,,2013-08-01 12:00:00
7:00 PM,82.4,78.8,89,29.56,4.3,Calm,Calm,-,N/A,,Mostly Cloudy,0,2013-08-01 12:00:00
9:00 PM,82.4,78.8,89,29.59,5.0,WSW,2.3,-,N/A,Rain,Light Rain,250,2013-08-01 14:00:00
10:00 PM,82.4,75.2,79,29.62,5.0,Calm,Calm,-,N/A,Thunderstorm,Thunderstorm,0,2013-08-01 15:00:00
11:00 PM,80.6,77.0,89,29.65,5.0,South,9.2,-,N/A,,Mostly Cloudy,170,2013-08-01 16:00:00